Location: Cedar Brake
(32.2526°N, 97.8459°W)
Time: 21:24:38
(UTC+00:00)

NOSS 2-1 (E) - Pass Details

Date: 22 April 2026
Orbit: 385 x 1749 km, 63.3° (Epoch: 7 May)

Event Time Altitude Azimuth Distance (km) Brightness Sun altitude
Rises 03:11:21 0° 335° (NNW) 2,530 7.6 -25.0°
Reaches altitude 10° 03:13:16 10° 340° (NNW) 1,757 6.6 -25.3°
Enters shadow 03:16:08 46° 11° (N) 814 4.2 -25.8°
